EHI
21 29 45 63 77 87 92 96 96 94 91 87 80 68 54 39 25 16 8 2 0 0 0 0 0 0 0 0 0 0 0 0 0 0 0 0 0 0 0 0 0 0 0
36 39 51 65 75 83 88 91 91 89 87 84 76 66 53 41 29 17 7 2 0 0 0 0 0 0 0 0 0 0 0 0 0 0 0 0 0 0 0 0 0 0 0
58 52 55 66 75 80 83 85 86 84 80 76 70 61 50 41 31 18 7 2 0 0 0 0 0 0 0 0 0 0 0 0 0 0 0 0 0 0 0 0 0 0 0
68 59 58 71 80 81 81 81 82 79 73 67 62 56 46 36 26 14 7 3 1 0 0 0 0 0 0 0 0 0 0 0 0 0 0 0 0 0 0 0 0 0 0
66 60 62 76 85 84 81 79 76 71 64 56 51 45 36 26 17 9 6 4 1 0 0 0 0 0 0 0 0 0 0 0 0 0 0 0 0 0 0 0 0 0 0
68 61 64 77 85 84 81 77 71 62 53 45 38 31 22 14 8 5 3 2 1 0 0 0 0 0 0 0 0 0 0 0 0 0 0 0 0 0 0 0 0 0 0
73 66 66 76 82 81 77 75 68 56 45 38 30 22 13 7 4 2 1 1 0 0 0 0 0 0 0 0 0 0 0 0 0 0 0 0 0 0 0 0 0 0 0
74 68 67 72 76 75 72 70 64 52 42 33 24 17 9 4 2 1 0 0 0 0 0 0 0 0 0 0 0 0 0 0 0 0 0 0 0 0 0 0 0 0 0
66 67 67 67 69 69 67 64 58 47 36 27 20 14 8 3 1 0 0 0 0 0 0 0 0 0 0 0 0 0 0 0 0 0 0 0 0 0 0 0 0 0 0
51 55 60 64 66 67 64 60 54 43 32 23 17 13 8 3 1 0 0 0 0 0 0 0 0 0 0 0 0 0 0 0 0 0 0 0 0 0 0 0 0 0 0
35 37 44 52 61 64 62 56 49 41 32 24 19 14 10 6 2 1 1 1 2 1 1 0 0 0 0 0 0 0 0 0 0 0 0 0 0 0 0 0 0 0 0
29 27 29 35 43 50 52 48 44 39 33 29 26 22 17 12 8 6 4 3 3 3 2 1 2 3 3 3 2 1 1 0 0 0 0 0 0 0 0 1 1 0 0
31 26 23 24 27 33 36 37 38 37 33 31 30 28 25 20 16 13 9 5 4 3 3 4 6 8 8 6 4 2 1 1 0 0 0 0 0 0 0 1 2 1 1
30 25 20 19 20 22 25 27 29 29 28 27 25 24 24 21 17 14 11 6 5 5 5 6 8 9 10 9 6 3 1 1 0 0 0 0 0 0 1 2 2 1 1
23 21 18 18 19 20 20 21 21 20 20 20 18 17 17 15 13 11 9 5 4 6 7 6 5 7 9 10 9 5 2 1 1 0 0 0 0 1 3 3 2 1 1
17 19 19 18 18 19 18 17 15 12 12 14 14 12 12 10 9 10 9 6 3 3 5 5 4 5 7 9 9 9 5 1 1 0 0 1 1 3 5 5 2 1 1
15 18 21 18 14 15 16 14 11 8 7 9 9 9 8 6 6 7 8 6 2 1 2 3 4 5 5 5 6 8 6 3 1 0 1 2 2 4 7 6 3 2 3
10 11 13 12 9 8 9 10 9 7 5 6 5 5 5 4 4 4 4 3 1 0 1 3 5 5 3 2 2 4 4 3 1 0 1 2 2 3 6 6 5 5 5
3 3 3 4 3 2 3 4 5 5 5 5 4 3 4 4 5 4 3 1 1 1 2 4 5 4 3 2 1 1 2 2 1 0 0 1 1 2 3 5 6 6 6
0 0 0 0 0 0 0 0 1 2 3 3 3 3 3 4 4 4 3 3 2 2 3 4 4 4 2 1 0 0 0 1 1 0 0 0 1 1 2 3 6 6 6
0 0 0 0 0 0 0 0 1 2 2 2 2 3 3 3 3 3 3 3 3 3 3 3 3 3 3 1 1 0 0 0 0 0 0 1 1 1 1 1 3 6 7
0 0 0 0 0 0 0 0 1 1 2 1 1 1 2 3 3 2 3 3 2 2 2 3 3 3 3 3 2 1 0 0 0 0 0 0 0 1 1 1 2 5 6
0 0 0 0 0 0 0 0 0 0 0 1 1 1 1 2 2 3 3 2 1 1 1 1 2 2 3 3 3 2 0 0 0 0 0 0 0 0 1 1 1 2 2
0 0 0 0 0 0 0 0 0 0 0 0 0 0 0 1 1 2 2 2 1 0 0 0 1 1 1 2 2 1 0 0 0 0 0 0 0 0 0 0 0 0 0
0 0 0 0 0 0 0 0 0 0 0 0 0 0 0 0 0 1 1 1 1 0 0 0 0 0 0 1 1 0 0 0 0 0 0 0 0 0 0 0 0 0 0
0 0 0 0 0 0 0 0 0 0 0 0 0 0 0 0 0 0 0 0 0 0 0 0 0 0 0 0 0 0 0 0 0 0 0 0 0 0 0 0 0 0 0
Wind_Speed
7 10 17 18 19 19 19 19 19 19 19 18 18 18 18 18 17 16 15 14 13 12 11 10 9 9 9 9 9 9 10 11 11 12 12 12 13 13 14 16 15 12 17
12 12 18 18 19 19 18 19 19 18 19 18 18 18 18 17 16 16 15 14 13 12 11 10 9 9 9 10 10 10 10 11 12 12 13 12 13 13 14 15 14 11 17
14 12 15 18 18 18 18 18 18 18 18 18 18 18 17 17 16 15 14 13 12 12 11 10 10 10 9 10 10 10 10 11 12 12 12 8 10 13 14 15 16 16 16
14 10 12 19 18 18 18 17 18 18 18 18 17 17 17 16 16 15 14 13 12 11 11 10 10 10 10 10 10 10 10 11 12 12 6 7 8 12 14 15 15 16 16
11 9 12 20 19 18 17 17 17 17 17 17 16 16 16 15 15 14 14 13 12 12 11 10 10 10 10 10 10 10 10 11 11 9 5 5 5 11 14 14 15 15 15
10 8 11 19 18 17 17 16 16 15 15 15 15 15 14 14 14 13 13 12 12 11 11 10 10 10 10 10 10 9 10 10 9 5 5 5 6 10 14 14 15 15 15
10 7 10 17 17 16 16 15 15 14 14 14 14 13 13 13 13 12 12 11 11 11 10 10 10 10 10 10 9 9 9 10 6 5 5 5 6 10 13 14 14 14 14
11 8 8 16 16 15 15 14 14 14 13 13 13 13 12 12 11 11 11 11 10 10 10 9 9 9 9 9 9 8 9 9 7 6 5 5 8 10 13 13 13 14 14
8 7 6 8 11 14 14 13 12 12 12 12 12 12 12 12 11 11 11 11 11 11 10 10 10 10 9 9 9 8 9 8 5 4 6 5 9 12 13 14 14 14 14
6 5 5 5 5 6 8 12 13 12 12 12 12 12 12 12 11 12 10 10 11 11 11 11 11 11 10 10 9 9 9 7 4 5 4 6 12 14 14 14 15 15 14
6 3 4 4 4 4 5 8 10 11 11 11 10 12 10 5 5 6 9 11 12 12 12 12 12 11 11 10 11 10 8 3 4 3 4 8 13 15 15 15 15 15 15
6 4 3 3 3 3 4 4 3 4 4 5 3 5 4 3 4 6 6 12 13 13 13 13 13 11 9 5 8 10 4 5 4 4 5 10 13 16 16 16 16 16 16
4 3 2 2 3 3 2 1 1 1 1 2 3 3 2 2 3 4 2 5 6 9 7 8 8 6 5 4 4 4 5 5 4 4 6 12 13 16 17 17 17 18 17
4 3 2 1 1 1 1 1 1 1 1 2 2 3 3 2 3 3 3 3 3 3 4 4 4 6 6 6 7 7 7 5 5 5 6 12 13 16 18 18 19 19 19
4 3 3 2 1 1 1 0 1 1 1 1 2 3 3 3 3 3 3 3 4 3 4 4 5 6 7 7 7 8 9 9 8 7 5 13 15 16 18 19 20 20 20
4 3 2 3 2 2 1 1 1 1 2 2 2 3 3 3 4 4 4 3 4 4 4 4 5 6 6 6 8 9 9 9 8 8 7 9 15 16 18 20 21 21 21
4 3 3 3 3 2 1 0 0 0 0 0 1 1 1 2 3 3 3 3 4 3 4 4 5 4 5 6 8 9 8 8 8 8 8 6 7 14 17 19 21 21 21
5 6 5 5 5 4 3 2 2 1 1 1 1 1 0 1 2 2 2 3 3 2 3 3 4 4 5 5 6 6 7 6 9 8 8 8 7 8 12 19 19 20 21
4 5 5 5 4 3 3 3 2 2 2 1 1 1 2 2 2 1 2 2 2 2 3 4 3 3 5 5 5 6 6 7 7 8 9 9 9 8 7 12 18 19 20
3 3 4 4 4 3 2 2 2 2 2 1 1 1 2 2 1 1 1 2 2 2 2 3 3 3 4 4 6 6 5 7 6 7 9 8 8 10 9 9 9 13 20
3 3 3 3 2 2 1 1 1 1 1 1 1 2 2 2 2 1 1 2 2 2 3 3 3 3 3 2 3 3 4 6 7 7 7 7 9 10 9 10 8 7 9
1 2 2 3 2 2 1 1 0 0 1 1 2 2 2 3 2 1 2 2 2 2 3 3 2 2 2 2 2 2 2 3 5 8 7 8 9 7 9 11 9 10 8
1 1 2 2 2 2 2 1 2 2 2 2 3 3 3 4 3 2 2 2 2 2 3 3 3 4 3 2 3 3 2 3 2 3 7 8 8 7 8 8 11 11 11
0 1 2 2 2 2 2 2 1 1 1 2 2 3 4 4 4 3 3 3 3 2 3 4 3 3 3 3 2 3 3 2 2 2 2 5 8 9 9 9 10 11 11
1 2 1 2 2 2 2 1 1 1 1 2 2 4 4 4 4 4 4 3 3 3 4 4 3 3 3 3 3 2 3 3 3 3 3 3 4 6 8 8 7 8 10
2 2 2 2 2 3 2 2 1 2 2 3 4 4 4 3 4 5 4 3 3 3 4 4 4 4 4 4 4 3 3 3 2 3 4 3 3 3 5 6 7 7 8
Wind_Direction
155 158 158 152 144 140 136 133 131 131 131 132 135 138 142 144 145 148 148 148 149 147 142 137 133 131 132 132 130 129 128 128 130 132 130 128 126 126 123 120 117 117 118
147 155 157 153 147 144 140 137 136 135 135 136 138 141 144 146 147 149 151 152 152 150 146 143 138 135 133 133 131 130 130 131 133 133 132 130 130 128 125 123 122 125 123
145 153 156 154 150 147 144 142 141 140 140 141 143 144 147 149 150 152 154 155 155 154 151 149 144 141 138 136 135 134 134 134 134 132 125 125 131 132 131 130 129 127 126
146 150 154 156 153 150 148 146 145 145 146 147 148 149 151 153 155 157 158 160 159 157 156 154 150 147 144 142 141 139 137 137 136 130 120 131 137 139 137 135 133 132 130
142 145 159 158 157 155 153 151 150 150 151 152 153 155 156 158 160 161 162 163 163 162 161 160 156 153 151 149 147 145 144 143 140 128 125 133 134 146 144 141 139 137 135
137 141 161 159 159 158 157 156 156 156 156 157 159 160 162 164 166 167 168 169 169 169 169 167 165 161 159 157 156 155 154 152 138 127 129 137 144 154 150 149 147 143 141
139 142 160 159 161 162 162 162 161 162 162 163 165 168 170 172 174 174 176 177 177 176 176 176 174 170 168 167 167 166 165 162 140 143 144 148 159 161 158 156 152 149 148
141 141 152 161 163 165 167 168 168 169 170 172 174 176 179 182 184 184 185 186 187 188 187 186 186 181 179 179 179 178 177 171 161 165 162 166 175 171 167 163 158 156 154
135 134 141 155 164 168 170 173 174 175 176 179 182 185 189 192 195 195 195 196 198 199 198 198 198 196 194 191 192 193 192 189 161 169 178 177 186 181 176 171 167 164 162
126 130 131 139 148 158 169 178 181 185 186 189 191 193 197 202 205 206 204 209 209 208 208 209 208 206 204 203 204 205 207 200 173 184 185 187 191 190 185 180 176 173 170
137 128 125 131 137 146 164 186 187 193 197 197 200 203 204 206 209 212 214 218 221 220 219 219 219 217 214 213 213 214 214 196 184 196 194 198 197 197 193 187 184 182 179
156 154 127 133 142 152 181 183 182 194 194 195 194 201 199 196 210 216 223 225 229 229 228 227 226 224 222 215 221 220 208 195 196 206 209 208 205 204 200 194 192 189 186
137 141 141 149 163 170 175 171 172 178 182 194 200 205 198 198 213 219 216 232 238 239 235 234 230 221 215 206 214 219 209 204 206 214 218 216 213 211 208 201 197 195 192
109 126 120 146 169 174 156 181 183 185 197 209 214 204 198 210 215 220 225 228 231 236 234 228 223 215 218 217 214 222 224 218 213 214 222 223 220 217 214 208 203 200 197
85 89 114 133 161 171 147 172 183 212 225 223 226 219 212 222 224 224 231 233 238 237 237 236 231 223 219 220 223 224 228 227 222 215 220 227 225 220 218 213 208 205 201
86 93 111 114 135 124 118 136 182 205 199 213 229 231 228 230 228 226 228 233 241 242 240 238 238 231 227 222 228 229 230 229 227 221 218 228 231 224 221 218 212 209 205
79 79 85 93 83 92 104 105 93 52 127 186 262 272 246 245 246 237 237 237 238 239 237 235 239 234 230 226 231 231 232 230 228 225 220 218 227 229 225 221 215 211 207
73 70 64 77 78 76 71 47 46 49 51 44 21 344 331 247 248 248 250 257 257 246 241 239 236 237 239 231 230 226 228 228 230 227 224 221 220 225 228 226 218 212 209
76 81 76 74 79 77 69 53 46 50 50 35 28 357 331 302 271 247 247 262 270 252 244 250 239 233 240 236 233 229 226 227 231 232 226 223 219 219 219 225 219 212 210
70 76 85 80 76 80 77 64 47 39 26 24 21 342 324 303 285 254 253 273 274 262 256 252 254 242 241 238 242 240 228 226 224 228 230 227 221 220 220 221 216 214 211
61 60 63 75 62 70 71 68 56 2 332 351 341 328 320 313 298 258 263 264 251 251 257 256 251 252 247 228 232 248 244 231 227 228 227 226 225 222 217 215 211 206 210
59 53 51 50 42 38 42 36 12 322 309 305 321 331 331 324 309 287 265 264 254 253 261 254 239 246 250 215 207 224 255 257 238 230 222 225 228 220 219 217 212 208 206
25 14 44 38 36 28 26 34 29 22 0 351 342 335 330 329 320 307 295 283 270 248 255 257 240 235 242 238 216 210 214 234 255 234 222 224 222 218 218 215 213 212 208
40 50 45 34 31 21 27 44 47 32 316 294 301 307 317 327 325 313 292 275 268 256 252 255 239 234 235 244 240 235 234 225 232 261 239 223 221 220 218 215 213 210 207
59 67 54 42 27 14 26 54 57 355 275 293 305 311 316 318 318 314 302 283 270 261 258 253 249 234 227 234 234 235 242 245 235 242 255 238 225 222 217 212 208 206 204
37 40 35 28 357 352 360 3 359 303 299 310 313 311 311 309 307 310 310 297 283 271 266 260 252 246 239 239 239 233 230 233 223 228 244 241 235 230 219 213 208 205 200